Theta_e
330 325 328 319 307 305 304 305 310 310 310 314 313 311 312 312 311 316 349 359 359 361 368 367 364 366 366 365 363 362 362 361 362 363 362 361 361 362 363 363 364 364 362 361 360 359 357 355 356
324 326 322 316 303 301 303 306 306 309 311 313 313 312 311 311 335 335 347 360 359 364 370 366 364 365 366 365 363 362 362 361 362 362 362 361 362 362 363 363 365 364 361 359 358 357 355 355 355
324 326 315 309 305 301 303 305 307 309 311 311 311 313 312 321 335 342 355 363 361 366 369 367 363 364 365 365 363 363 362 362 362 362 362 362 362 362 362 363 364 364 360 358 356 355 355 354 354
321 319 314 304 302 305 304 306 308 308 311 312 311 310 316 338 336 346 359 363 361 365 366 363 363 363 364 364 364 363 363 363 362 361 362 362 362 362 361 363 363 362 359 356 355 355 354 353 353
319 315 305 303 304 305 306 307 309 307 309 310 311 309 311 331 338 348 357 359 359 362 365 365 362 362 363 364 364 363 363 362 362 362 362 362 361 361 362 363 362 362 360 357 355 354 352 351 351
310 312 302 300 303 306 308 310 309 309 309 310 309 310 314 332 334 343 355 357 359 359 363 364 361 362 361 363 363 362 362 361 361 361 362 361 361 362 363 362 362 361 359 356 353 352 351 350 350
306 306 301 302 302 303 306 310 307 307 307 307 311 307 313 316 334 343 350 358 358 359 359 360 361 361 361 361 361 361 360 361 360 360 360 360 361 361 362 361 361 360 357 355 352 350 349 348 349
308 306 301 302 301 302 307 306 307 306 306 311 311 306 310 316 330 336 344 355 357 359 358 359 361 357 355 357 360 360 360 360 360 360 360 360 361 361 361 359 360 357 354 353 351 350 348 347 347
306 300 298 299 298 301 305 303 308 309 307 308 310 310 313 315 324 328 334 343 356 356 359 358 359 357 354 352 358 359 359 360 359 360 360 356 351 357 359 357 358 355 353 352 350 349 348 347 346
304 300 299 301 302 302 304 304 306 305 305 306 308 311 313 315 318 319 321 329 349 350 354 358 356 358 354 352 356 352 354 355 355 356 357 350 352 352 352 357 357 355 353 352 350 349 347 346 342
304 299 302 303 304 304 304 304 307 305 303 307 306 309 312 312 315 318 316 321 335 353 354 354 357 359 356 352 352 350 350 349 351 354 355 352 351 352 352 354 351 352 353 348 346 345 341 339 342
300 302 303 304 305 304 303 306 304 305 306 310 311 311 312 312 313 316 317 317 328 347 353 355 358 359 358 354 352 351 349 349 349 352 354 352 350 352 348 347 347 351 347 346 345 341 341 342 345
302 303 305 306 306 306 307 304 304 304 308 310 311 311 311 312 313 315 317 319 323 331 351 356 357 359 358 357 353 352 352 350 350 351 354 351 347 349 348 349 349 348 346 345 341 339 340 342 347
305 305 305 307 306 306 304 304 305 306 308 308 309 310 311 312 313 314 315 316 324 328 336 349 356 361 360 357 356 353 353 352 350 349 350 351 347 350 349 350 347 345 345 341 339 339 341 345 347
306 302 304 305 304 304 306 300 302 307 309 308 309 311 311 313 314 314 316 318 320 328 337 346 357 358 362 359 356 355 353 351 349 349 352 351 352 355 352 346 344 345 348 343 343 345 350 350 353
302 303 298 304 304 305 303 297 304 308 308 307 308 309 311 313 314 316 317 319 321 325 335 348 352 358 360 361 357 355 353 352 350 350 351 352 353 356 352 344 344 346 347 344 342 345 345 347 350
301 296 297 298 305 303 302 298 304 308 307 307 308 309 310 312 315 317 318 319 320 324 330 343 355 356 359 361 359 358 358 353 351 350 351 352 352 352 349 344 345 354 346 343 345 346 348 348 349
293 294 296 295 300 301 299 299 303 307 307 306 307 309 310 311 313 317 319 320 322 322 330 336 347 354 363 358 361 356 353 353 352 350 350 352 351 350 350 344 351 353 347 347 349 352 351 350 349
297 295 294 297 301 299 298 299 301 305 306 306 307 308 309 311 315 317 319 320 322 322 326 332 339 350 359 355 352 350 347 350 350 350 352 351 350 349 350 344 353 355 351 352 356 354 352 347 349
296 294 294 298 301 300 299 299 302 305 306 306 306 308 309 310 313 315 317 319 321 324 327 336 340 348 356 356 356 353 350 351 350 350 350 350 350 352 351 354 353 355 351 355 355 354 346 344 346
296 294 295 295 299 300 298 297 300 304 307 307 308 309 310 310 311 313 315 318 320 323 330 337 343 349 351 352 351 350 350 352 348 347 347 348 349 351 354 355 355 357 355 352 353 352 350 341 343
292 298 297 296 295 290 299 289 297 301 302 305 307 309 309 311 312 313 315 317 319 320 328 335 342 348 351 350 347 351 346 346 347 347 347 347 350 349 352 356 357 358 353 357 352 351 350 349 340
295 299 297 297 295 294 295 290 296 301 299 302 305 308 310 312 313 313 315 316 319 321 322 333 340 347 350 353 350 347 345 346 348 347 348 353 351 348 346 353 357 357 352 354 352 352 352 348 344
299 297 297 298 296 288 294 292 293 297 299 302 305 307 308 311 312 314 316 317 318 320 321 325 337 343 348 351 352 350 348 351 348 347 345 344 345 346 348 349 357 357 355 352 351 352 350 346 341
297 293 287 287 286 287 295 292 294 300 302 303 304 307 308 311 312 313 314 315 317 319 321 323 331 339 345 345 350 348 350 352 350 351 346 347 343 342 349 354 356 354 353 352 349 345 341 338 332
294 293 287 280 283 287 294 288 296 302 304 304 306 308 308 309 312 312 314 315 316 318 320 322 326 336 342 343 343 347 346 345 347 350 346 345 344 343 352 352 353 351 348 343 342 337 334 332 329
294 290 297 288 291 286 291 295 300 302 302 303 305 306 307 310 312 312 314 316 316 319 320 322 325 332 340 342 344 348 345 342 348 345 345 348 343 342 348 349 347 341 338 337 336 330 330 328 328
297 299 288 289 281 282 288 290 291 297 299 302 303 306 309 310 312 312 314 316 319 321 322 322 324 330 336 341 341 345 349 344 345 347 341 345 343 348 347 344 338 337 334 332 332 329 327 326 323
294 291 291 289 289 283 283 288 299 299 301 302 304 305 307 309 310 311 313 315 317 319 321 324 322 324 332 338 340 342 347 348 347 344 345 345 347 347 344 337 334 331 329 328 327 326 323 320 318
298 295 295 287 287 289 287 288 301 302 303 304 305 306 307 308 310 311 311 312 314 316 319 321 327 322 326 335 338 340 344 347 343 339 341 343 339 338 336 330 325 324 323 323 318 318 316 316 314
Wind_Speed
12 4 5 6 8 7 13 4 4 6 5 3 6 7 12 8 7 6 10 14 8 9 19 20 14 15 17 19 19 19 19 20 21 20 18 17 18 19 17 15 13 12 12 11 11 11 11 11 10
7 4 6 3 9 11 11 5 9 1 4 6 5 5 6 3 12 9 10 17 3 10 16 19 16 17 18 19 18 19 19 20 19 19 20 19 18 18 16 15 13 13 12 11 10 10 10 10 9
6 5 6 5 9 13 10 5 4 1 2 6 4 3 4 5 10 10 16 11 2 11 16 16 14 17 18 19 18 19 19 19 19 17 18 18 17 17 16 14 12 12 13 11 10 9 9 9 8
5 6 5 10 13 6 7 5 1 3 4 3 6 5 2 6 10 12 12 10 5 12 15 19 12 15 17 18 18 17 18 19 18 18 17 17 16 15 14 12 12 11 12 11 10 10 9 9 8
5 4 10 13 15 2 5 2 2 4 4 6 9 4 6 6 8 9 7 8 3 11 14 16 13 14 17 18 18 18 18 18 18 17 17 17 16 15 13 11 10 9 9 11 10 9 9 8 7
6 5 10 14 16 7 6 4 8 7 6 10 10 11 5 3 8 9 7 3 3 7 12 15 14 13 16 17 17 18 18 18 18 17 15 15 15 15 14 11 10 9 9 9 9 9 9 7 6
12 8 15 15 7 9 7 1 8 7 12 10 8 11 7 4 7 7 6 3 4 6 8 12 15 14 14 14 16 16 17 19 18 18 17 14 13 13 14 12 11 10 9 9 8 8 7 6 6
5 7 10 12 11 16 4 5 5 10 13 9 10 8 6 9 3 3 4 3 4 10 11 11 15 16 15 15 14 15 15 16 18 17 16 17 16 13 12 11 11 11 10 10 10 9 8 7 6
3 7 10 11 7 9 4 12 10 7 15 15 14 17 14 8 6 7 2 2 5 6 12 11 14 16 15 15 14 14 15 14 15 15 15 15 13 15 15 9 14 12 11 11 10 9 8 7 7
5 7 6 6 7 10 11 13 14 14 15 14 13 15 16 16 9 6 6 3 6 5 9 11 10 14 14 12 15 14 14 12 13 13 14 12 13 13 13 11 11 11 12 12 10 9 8 10 9
1 7 4 10 10 8 14 17 16 16 18 14 11 12 13 9 11 10 9 6 6 12 9 12 12 12 15 12 11 8 8 9 9 13 13 11 10 9 9 8 8 8 10 9 10 9 9 10 6
9 2 7 11 10 15 18 18 21 20 20 16 18 13 15 14 15 12 9 10 8 11 15 14 16 16 15 10 10 11 10 10 9 11 14 9 8 10 9 7 10 8 8 5 6 6 5 7 7
7 6 9 13 16 16 15 17 20 23 21 21 20 16 18 18 16 15 12 10 11 11 15 19 16 16 14 13 11 10 10 10 11 11 13 11 10 10 9 8 7 8 6 7 7 5 7 8 8
9 14 17 15 13 7 13 16 14 14 16 19 17 16 17 17 17 16 15 13 13 13 14 16 20 19 18 15 15 11 10 12 11 11 12 13 10 10 10 8 8 7 7 6 7 7 7 8 7
14 18 17 16 7 14 17 18 23 13 13 14 16 17 16 16 15 15 14 15 14 13 14 16 17 17 20 20 15 12 12 12 11 11 13 14 13 11 10 9 8 7 6 7 6 7 6 7 6
18 15 12 12 13 12 10 22 19 16 13 18 17 15 17 17 17 16 13 12 14 14 14 15 13 16 17 18 16 13 12 11 11 10 11 13 14 13 11 9 8 7 7 7 8 8 8 7 6
15 16 22 26 20 18 20 27 23 17 17 20 21 20 20 19 17 16 14 11 13 13 14 15 15 14 18 15 15 15 15 12 11 11 10 13 15 14 11 9 8 9 8 8 7 7 7 6 5
21 23 22 24 23 24 27 29 25 24 24 24 23 21 21 20 19 17 15 11 9 12 14 14 14 13 17 13 12 10 11 12 11 11 11 15 13 14 11 9 8 10 8 8 8 8 6 5 5
17 22 26 26 22 23 27 27 27 24 24 25 23 22 22 22 19 17 16 13 9 11 13 15 16 16 14 12 12 10 12 12 11 11 13 15 13 14 13 10 10 10 9 8 8 7 8 5 5
21 23 25 23 20 18 24 31 28 25 25 25 24 24 23 23 21 20 19 16 14 11 14 15 17 17 15 11 12 10 11 13 12 12 13 14 15 12 12 10 12 12 9 9 10 9 7 5 6
18 19 20 23 23 22 25 30 20 17 15 20 25 25 25 25 23 22 20 19 16 13 14 16 17 17 15 14 10 8 7 8 10 12 12 13 13 14 11 12 10 11 9 10 10 10 9 6 6
17 16 21 23 22 20 20 25 24 21 20 17 18 21 22 22 22 21 22 21 19 15 13 14 15 17 17 13 10 16 12 13 12 13 12 12 14 14 12 14 12 12 10 8 10 9 8 6 6
18 17 19 25 24 25 24 15 18 17 18 12 8 9 12 15 17 20 20 22 21 19 15 14 14 17 17 19 18 13 14 14 11 11 14 13 13 14 16 14 13 11 9 8 10 10 9 6 3
19 17 19 26 13 10 15 9 10 9 10 8 5 4 4 10 11 14 17 18 19 18 17 15 15 15 17 18 19 17 16 14 12 13 13 14 12 11 14 15 12 10 8 9 8 7 6 3 3
16 13 9 5 5 11 10 12 11 17 12 9 10 11 5 4 7 9 14 15 15 17 18 15 15 15 15 16 19 18 19 17 14 17 14 14 12 12 13 12 11 9 8 9 8 6 7 6 6
18 9 6 9 13 20 20 9 7 17 13 8 8 10 7 4 4 4 6 9 12 15 15 16 16 15 15 16 17 18 16 11 12 16 13 11 10 10 14 13 11 10 11 11 10 8 8 9 8
9 10 10 8 19 14 10 14 15 4 3 2 5 5 5 1 2 4 3 2 6 9 8 11 15 15 15 16 15 16 13 13 14 12 10 12 9 6 10 12 12 12 11 11 12 10 11 9 9
11 7 7 4 7 14 11 18 13 5 11 4 3 2 2 2 0 5 5 6 5 5 6 8 10 14 15 15 15 14 16 15 16 17 14 15 10 12 14 13 13 13 13 11 12 11 11 11 9
10 5 6 5 7 11 16 9 12 8 14 18 3 4 6 6 6 8 8 7 7 7 8 4 7 12 14 14 15 15 15 19 17 14 14 15 15 18 18 15 15 14 13 10 11 12 12 14 12
12 15 13 6 13 13 13 18 21 15 10 13 18 7 7 9 10 9 9 8 9 9 9 8 4 9 12 14 14 15 15 15 13 9 14 14 17 15 17 16 15 13 13 13 11 12 9 12 12
Wind_Direction
281 285 259 235 239 237 249 180 330 192 189 29 312 284 339 321 336 23 10 17 330 178 157 166 161 154 151 143 148 148 148 149 150 151 151 148 144 139 141 139 135 134 136 134 130 125 122 121 123
304 251 224 255 253 231 233 89 202 79 3 310 289 285 238 98 46 324 356 343 330 166 163 173 161 153 149 141 147 147 150 148 152 152 150 149 147 142 143 141 139 139 138 135 131 126 125 127 125
249 248 251 242 242 250 266 129 130 234 323 345 322 342 355 27 3 351 355 336 224 168 166 158 163 150 147 143 146 146 150 146 149 152 150 149 148 144 146 144 141 144 142 139 132 129 129 127 122
218 193 211 245 240 252 310 135 164 252 195 310 357 253 121 56 345 2 348 328 210 180 172 130 161 150 146 144 143 145 148 143 146 151 149 147 145 142 143 142 139 144 144 138 134 133 134 129 126
221 262 243 240 246 254 228 194 259 253 289 300 333 284 289 55 344 7 13 330 259 181 168 151 155 150 147 146 143 146 146 143 145 147 149 147 143 138 138 136 136 140 136 137 136 134 131 130 135
208 286 239 242 232 224 233 220 278 252 290 301 289 314 290 147 359 2 20 44 269 183 160 143 147 152 146 146 145 147 144 142 143 145 147 146 142 138 136 136 134 131 129 136 134 131 126 130 139
264 235 253 265 276 260 241 305 250 297 282 277 319 280 296 265 24 4 20 88 205 178 145 149 166 152 144 144 145 147 145 145 145 145 143 141 136 134 134 134 130 129 128 131 132 130 130 146 155
281 267 261 245 256 242 145 275 263 267 283 313 273 261 254 14 350 341 24 77 198 175 154 167 171 169 169 158 144 146 147 145 143 144 142 142 135 135 134 130 134 138 138 137 142 147 151 164 179
256 246 254 262 254 259 253 291 292 294 275 274 267 271 287 317 302 293 286 62 146 190 156 178 185 171 177 162 150 142 143 141 141 144 143 146 167 170 159 151 143 147 148 145 153 160 167 176 193
283 266 339 357 311 278 293 281 298 291 277 268 264 255 257 267 265 267 286 267 177 172 171 177 191 175 178 165 157 165 161 172 179 176 170 181 169 182 189 144 148 156 157 153 162 168 182 208 189
3 300 336 278 287 280 283 283 281 273 269 266 268 286 281 249 260 269 277 262 218 181 175 175 179 194 182 176 171 167 167 169 175 177 179 188 172 173 185 164 173 177 184 181 183 179 207 205 219
283 348 304 299 291 273 274 281 276 266 272 282 271 272 272 266 265 247 264 276 218 191 186 187 180 181 203 174 182 172 176 173 174 177 183 173 187 175 195 186 188 190 177 175 207 197 204 202 218
264 325 292 288 284 278 284 270 272 272 270 262 261 260 264 267 260 256 257 252 265 226 207 187 189 192 189 187 182 182 183 183 179 177 184 180 193 182 186 189 190 193 169 188 189 202 195 198 210
331 299 294 283 285 251 273 277 273 271 269 258 258 259 255 258 262 261 263 254 227 231 226 219 191 190 185 195 183 182 190 179 183 181 181 192 198 181 185 179 197 190 192 187 190 185 185 206 211
295 290 284 265 254 275 302 271 256 244 260 255 259 261 250 255 253 258 258 256 236 222 226 222 197 194 195 192 184 188 182 185 188 186 182 195 200 180 190 187 192 190 190 191 199 185 199 209 217
272 289 272 301 296 302 262 280 286 278 240 269 263 257 254 252 252 254 258 251 243 233 207 221 221 191 200 197 184 190 182 192 190 187 178 192 198 182 200 185 191 179 191 195 192 200 198 211 209
272 283 299 300 301 291 276 275 280 272 271 259 266 263 256 249 244 245 241 241 232 224 224 214 214 218 194 204 193 192 181 197 190 187 180 185 199 189 198 191 185 175 191 195 199 203 215 192 217
315 301 297 294 301 298 286 281 281 277 272 265 262 252 251 251 245 244 231 238 246 219 212 220 217 218 204 194 200 186 186 193 192 190 184 179 201 194 199 187 176 194 193 192 201 209 200 210 189
294 290 291 290 297 295 287 284 278 278 270 262 259 255 247 248 248 240 236 239 230 213 210 213 214 213 211 205 193 172 181 193 190 193 188 180 199 194 190 186 187 200 200 200 184 187 177 170 165
295 292 288 297 308 305 296 285 285 280 271 264 259 254 245 245 238 238 236 233 227 208 211 206 213 211 211 197 199 184 190 200 194 190 188 188 184 194 186 200 189 194 188 183 186 187 179 187 182
293 289 300 306 304 288 283 278 283 286 269 255 251 251 250 241 238 229 229 227 226 203 205 201 206 202 205 207 197 181 180 205 190 190 188 191 188 180 207 196 202 183 203 182 187 188 198 184 185
302 316 305 295 299 296 307 292 291 287 280 269 264 250 244 237 229 226 219 222 220 220 201 209 201 202 197 199 187 193 182 191 197 192 182 175 186 193 188 194 204 197 204 172 188 185 203 233 179
300 306 302 289 286 287 280 265 290 279 270 288 273 257 243 229 224 213 216 217 217 218 212 205 202 200 202 194 204 195 209 203 188 192 176 188 185 190 196 195 198 197 210 175 181 182 206 184 243
301 290 295 278 275 273 278 309 301 316 347 339 348 34 337 223 212 214 213 221 221 223 225 213 204 208 205 196 195 206 203 211 188 192 184 189 176 185 195 196 197 197 199 176 169 184 174 170 168
304 310 293 269 216 271 343 290 297 305 319 320 316 300 282 235 239 207 211 222 225 223 226 225 213 208 204 202 207 202 212 216 206 196 188 181 175 186 173 192 190 185 174 163 141 152 123 136 126
297 299 273 296 309 306 314 278 314 332 308 279 301 269 246 227 15 304 262 232 227 220 226 227 223 210 201 204 208 202 194 202 203 199 175 182 172 185 158 181 174 171 165 146 138 134 117 124 121
310 268 295 284 266 262 248 249 238 196 84 98 52 22 206 106 29 26 29 352 278 279 262 237 226 213 207 205 202 209 184 188 191 185 152 152 154 164 148 170 160 151 145 144 133 127 124 125 122
238 276 274 216 279 298 294 307 293 23 350 48 86 45 162 185 48 49 29 28 342 321 248 233 248 220 211 202 210 213 198 192 200 195 176 153 157 147 165 157 146 142 137 143 127 127 124 126 106
276 239 236 277 275 288 300 286 22 343 313 305 323 284 293 297 314 332 342 354 347 342 329 295 234 225 215 208 205 222 208 189 200 189 182 167 165 162 164 151 139 137 131 136 126 119 129 111 107
286 288 287 262 278 288 290 281 278 293 314 323 305 275 263 277 284 295 307 323 318 326 328 330 329 247 217 208 205 210 216 199 192 184 174 147 158 146 139 131 121 122 118 114 111 115 108 105 107